Location: Bemmer
(51.5498°N, 5.6249°E)
Time: 16:18:20
(UTC+00:00)

Okean 1 - Pass Details

Date: 03 March 2021
Orbit: 539 x 554 km, 82.5° (Epoch: 13 April)

Event Time Altitude Azimuth Distance (km) Brightness Sun altitude
Rises 17:51:56 0° 353° (N) 2,733 6.9 -5.5°
Reaches altitude 10° 17:54:09 10° 358° (N) 1,836 6.0 -5.9°
Maximum altitude 17:58:06 52° 75° (ENE) 696 3.5 -6.5°
Drops below altitude 10° 18:02:03 10° 153° (SSE) 1,829 5.7 -7.1°
Sets 18:04:15 0° 158° (SSE) 2,721 6.7 -7.4°
